Погода в Куксе

Чехия     50°24′15″N   15°53′20″E
темп.,
°C
ветер,
м/с
пор.,
м/с
влажн.,
%
обл.,
%
осадки,
мм/ч
давл.,
гПа
погр.,
м
27 сентября, пн
пн2723:00+14св118156 0.0 101911
02:00+14св1181100 0.0 101811
05:00+13ссв118594 0.0 101810
08:00+14св1181100 0.0 101814
11:00+19ююв1265100 0.0 1018426
14:00+21ююз2356100 0.0 10171244
17:00+20ююз126399 0.3 1017410
20:00+14ююз229193 0.7 101837
28 сентября, вт
вт2823:00+14ю119999 1.4 102050
02:00+14ю1198100 2.3 102030
05:00+14юз0097100 0.6 102114
08:00+14св119498 0.9 102229
11:00+17ссв237855 0.1 1022697
14:00+19ссв446723 0.8 1022957
17:00+17св467782 0.1 1022591
20:00+15св3786100 0.2 1023280
29 сентября, ср
ср2923:00+13св229599 0.0 102346
02:00+12св239698 0.0 102263
05:00+11св2293100 0.0 102044
08:00+11всв2281100 0.0 102067
11:00+15ю4766100 0.0 1020723
14:00+17ююз5763100 0.0 10191278
17:00+16зюз5770100 0.0 1019535
20:00+13юз3892100 0.4 1021342
30 сентября, чт
чт3023:00+11юз2292100 0.1 102320
02:00+10ююз2289100 0.1 102448
05:00+9ююз2394100 0.0 102666
08:00+8юз2690100 0.0 1027305
11:00+11юз45603 0.0 10281052
14:00+13зюз454057 0.0 10281475
17:00+12зюз34435 0.0 10271360
20:00+8с11540 0.0 102810
1 октября, пт
пт123:00+6в11585 0.0 102910
02:00+5вюв116322 0.0 102910
05:00+4вюв1165100 0.0 102810
08:00+6юв016294 0.0 102812
11:00+12ю24455 0.0 1026503
14:00+15ююз454313 0.0 1023968
17:00+16ю48505 0.0 1021574
20:00+10ююв226778 0.0 102213